Regional Weather Roundup
Issued by NWS

Home | Current Version | Previous Version | Graphics & Text | Print | Product List | Glossary On
Versions: 1 2 3 4 5 6 7 8 9 10 11 12 13 14 15 16 17 18 19 20 21 22 23 24 25 26 27 28 29 30 31 32 33 34 35 36 37 38 39 40 41 42 43 44 45 46 47 48 49 50
000
ASUS43 KMKX 162111
RWRWI

WISCONSIN REGIONAL WEATHER ROUNDUP
NATIONAL WEATHER SERVICE MILWAUKEE/SULLIVAN WI
400 PM CDT MON OCT 16 2017

NOTE: "FAIR" INDICATES FEW OR NO CLOUDS BELOW 12,000 FEET WITH NO
SIGNIFICANT WEATHER AND/OR OBSTRUCTIONS TO VISIBILITY.

WIZ001-002-006>008-014>016-023>028-162200-
NORTHWEST WISCONSIN

CITY           SKY/WX    TMP DP  RH WIND       PRES   REMARKS
SUPERIOR ARPT  SUNNY     62  35  36 SW14G22   29.99F
ASHLAND        SUNNY     60  34  37 SW12      30.03F
HAYWARD        SUNNY     59  31  34 SW8       30.05F
SIREN          SUNNY     62  32  33 SW12G17   30.05F
CUMBERLAND     SUNNY     59  30  33 SW10      30.08F
RICE LAKE      SUNNY     61  32  32 SW10G16   30.09F
CHETEK         SUNNY     61  35  38 W6        30.09F
LADYSMITH      SUNNY     59  33  37 SW10      30.11F
EAU CLAIRE     SUNNY     61  33  35 SW13      30.10F
MENOMONIE      SUNNY     63  34  34 S10       30.10F
NEW RICHMOND   SUNNY     62  32  32 SW14G20   30.08F
OSCEOLA        SUNNY     63  34  33 S9G18     30.10F
$$

WIZ003>005-009-010-017-018-162200-
NORTH CENTRAL WISCONSIN

CITY           SKY/WX    TMP DP  RH WIND       PRES   REMARKS
MANITOWISH WTR SUNNY     55  34  45 SW13      30.06F
ARBOR VITAE    SUNNY     57  37  47 SW13      30.08F
WOODRUFF       SUNNY     57  37  47 SW13      30.08F
RHINELANDER    SUNNY     56  36  47 SW10      30.10F
EAGLE RIVER    SUNNY     55  32  41 W14       30.08F
LAND O LAKES   SUNNY     56  34  43 SW5       30.08F
PHILLIPS       SUNNY     56  35  45 SW8       30.08F
TOMAHAWK       SUNNY     56  33  41 CALM      30.11S
MEDFORD        SUNNY     56  33  41 W10       30.11F
MERRILL        SUNNY     58  34  40 W15G21    30.12S
$$

WIZ029-030-035-036-043>047-162200-
CENTRAL WISCONSIN

CITY           SKY/WX    TMP DP  RH WIND       PRES   REMARKS
WAUSAU         SUNNY     57  36  45 SW13G22   30.11F
MOSINEE        MOSUNNY   57  36  44 SW13      30.15S
MARSHFIELD     SUNNY     58  34  40 SW16      30.13F
STEVENS POINT  SUNNY     57  33  40 W14       30.15S
WAUPACA        SUNNY     61  36  38 SW13G18   30.16F
WAUTOMA        SUNNY     61  37  41 SW14      30.16F
WISC RAPIDS    SUNNY     60  35  39 W12       30.16S
CAMP DOUGLAS   MOSUNNY   61  37  41 SW9       30.16S
$$

WIZ011>013-019>022-031-037>040-048>050-162200-
NORTHEAST WISCONSIN

CITY           SKY/WX    TMP DP  RH WIND       PRES   REMARKS
ANTIGO         SUNNY     54  37  51 SW13G18   30.13S
SHAWANO        SUNNY     60  36  40 W9G17     30.14F
OCONTO         MOSUNNY   58  36  44 W8G17     30.14F
STURGEON BAY   SUNNY     57  37  47 SW16      30.15F
GREEN BAY      MOSUNNY   58  39  49 SW10      30.16F
MANITOWOC      SUNNY     59  34  39 W10       30.18F
APPLETON       MOSUNNY   57  30  35 SW12G21   30.16S
CLINTONVILLE   SUNNY     59  34  38 W12       30.14F
OSHKOSH        SUNNY     59  37  44 VRB6      30.16F
$$

WIZ032>034-041-042-053>061-162200-
SOUTHWEST WISCONSIN

CITY           SKY/WX    TMP DP  RH WIND       PRES   REMARKS
LA CROSSE      SUNNY     66  33  29 SW12      30.14F
SPARTA         SUNNY     61  35  37 W7        30.16F
VIROQUA        SUNNY     61  33  34 SW10G17   30.17F
BOSCOBEL       SUNNY     65  33  30 W9        30.18F
PRAIRIE DU CHI SUNNY     64  28  25 SW6       30.17F
PLATTEVILLE    SUNNY     63  35  36 SW15      30.21F
$$

WIZ056-057-062-063-064-067-068-162200-
SOUTH CENTRAL WISCONSIN

CITY           SKY/WX    TMP DP  RH WIND       PRES   REMARKS
REEDSBURG      SUNNY     60  36  40 SW13G20   30.17F
BARABOO/DELLS  SUNNY     59  34  38 W14       30.17F
LONE ROCK      SUNNY     62  39  42 W8        30.18F
MINERAL POINT  SUNNY     63  34  34 SW8       30.20F
MADISON        MOSUNNY   60  35  39 SW9       30.19F
MIDDLETON      SUNNY     62  35  36 SW12G17   30.20S
WATERTOWN      SUNNY     60  35  39 W9G16     30.19F
MONROE         SUNNY     61  32  33 W16       30.21F
JANESVILLE     SUNNY     63  32  31 W7G17     30.21F
$$

WIZ051-052-058>065-066-070>072-162200-
SOUTHEAST WISCONSIN

CITY           SKY/WX    TMP DP  RH WIND       PRES   REMARKS
MILWAUKEE      MOSUNNY   62  32  32 SW14      30.20F
WAUKESHA       SUNNY     57  34  41 SW7       30.20F
MILWAUKEE/TIMM SUNNY     61  28  29 W5G16     30.21F
RACINE         SUNNY     62  35  36 SW8G16    30.22F
BURLINGTON     SUNNY     61  36  39 W10G20    30.20F
KENOSHA        SUNNY     61  34  36 W12       30.21F
FOND DU LAC    SUNNY     60  34  37 SW9G20    30.18F
SHEBOYGAN      SUNNY     59  37  44 W9        30.18F
WEST BEND      SUNNY     59  32  36 W13       30.19F
JUNEAU         SUNNY     58  35  41 W12G20    30.20S
$$

LSZ147-162-162200-
LAKE SUPERIOR

STATION/POSITION TIME  TEMP    WIND        PRES    WAVE
                       AIR SEA DIR/SP/G            HT/PER
                 (UTC) (F)     (DEG/KT/KT) (MB)    (FT/S)
W MID LAKE BUOY  2050   53 53              1016.4F   3/ 5
DEVILS ISLAND    2100   56     240/ 13/ 16 1016.1F
PORT WING        1930          240/  8/ 11 1017.6F
SAXON HARBOR     2040   60     230/  9/ 21 1016.6F
$$

LMZ867-665-643>646-162200-
LAKE MICHIGAN

STATION/POSITION TIME  TEMP    WIND        PRES    WAVE
                       AIR SEA DIR/SP/G            HT/PER
                 (UTC) (F)     (DEG/KT/KT) (MB)    (FT/S)
S GREEN BAY BUOY 2100   57 58  220/ 12/ 14 1020.3
N MID LAKE BUOY  2050   54 60  220/ 17/ 21 1021.5F   3/ 4
NORTHPORT PIER   2040   56     200/  5/ 11 1020.3F
KEWAUNEE LAKESHO 2042   57     250/  6/ 12 1020.6F
SHEBOYGAN LAKESH 2100   55     170/ 15/ 16 1021.9F
PORT WASHINGTON  2030   56     170/ 10/ 13 1023.0F
MILWAUKEE LAKESH 2050   60     270/  8/ 10   N/A
S MID LAKE BUOY  2050   57 62  220/ 10/ 14 1023.8F   2/ 5
KENOSHA   LAKESH 2100   61     250/ 12/ 17 1022.7
$$

TC  - TEMPERATURE IN CELSIUS
VSB - VISIBILITY IN STATUTE MILES
WCI - WIND CHILL INDEX
HX  - HEAT INDEX





USA.gov is the U.S. government's official web portal to all federal, state and local government web resources and services.